This is the latest recevied weather packets stored in our database for station/object SQ9SMC-13. If no packets are shown the sender has not sent any weather packets the latest 10 day(s).
| Time | Temp. | Humidity | Pressure | Rain* | Wind** | Luminosity | Snow |
|---|---|---|---|---|---|---|---|
| 1777233903 | 0° C | 72% | 1025.4 hPa | 0 mm | - | 0 W/m² | - |
| 1777233605 | 0° C | 70% | 1025.4 hPa | 0 mm | - | 0 W/m² | - |
| 1777233303 | 0.56° C | 70% | 1025.4 hPa | 0 mm | - | 0 W/m² | - |
| 1777233002 | 0.56° C | 68% | 1025.5 hPa | 0 mm | - | 0 W/m² | - |
| 1777232703 | 1.11° C | 67% | 1025.4 hPa | 0 mm | - | 0 W/m² | - |
| 1777232404 | 1.11° C | 67% | 1025.4 hPa | 0 mm | - | 0 W/m² | - |
| 1777232103 | 1.11° C | 67% | 1025.4 hPa | 0 mm | - | 0 W/m² | - |
| 1777231805 | 1.11° C | 65% | 1025.3 hPa | 0 mm | - | 0 W/m² | - |
| 1777231503 | 1.67° C | 64% | 1025.3 hPa | 0 mm | - | 0 W/m² | - |
| 1777231203 | 1.67° C | 63% | 1025.5 hPa | 0 mm | - | 0 W/m² | - |
| 1777230904 | 2.22° C | 62% | 1025.5 hPa | 0 mm | - | 0 W/m² | - |
| 1777230604 | 2.22° C | 62% | 1025.5 hPa | 0 mm | - | 0 W/m² | - |
| 1777230348 | 2.78° C | 61% | 1025.5 hPa | 0 mm | - | 0 W/m² | - |
| 1777230005 | 2.78° C | 60% | 1025.3 hPa | 0 mm | - | 0 W/m² | - |
| 1777229705 | 3.33° C | 58% | 1025.4 hPa | 0 mm | - | 0 W/m² | - |
| 1777229403 | 3.33° C | 59% | 1025.2 hPa | 0 mm | - | 0 W/m² | - |
| 1777229103 | 2.78° C | 58% | 1025.1 hPa | 0 mm | - | 0 W/m² | - |
| 1777228803 | 3.33° C | 55% | 1025.2 hPa | 0 mm | - | 0 W/m² | - |
| 1777228503 | 3.89° C | 53% | 1025.1 hPa | 0 mm | - | 0 W/m² | - |
| 1777228203 | 4.44° C | 50% | 1025 hPa | 0 mm | - | 0 W/m² | - |
| 1777227904 | 5° C | 47% | 1024.9 hPa | 0 mm | - | 0 W/m² | - |
| 1777227604 | 5.56° C | 45% | 1024.8 hPa | 0 mm | - | 0 W/m² | - |
| 1777227302 | 6.11° C | 43% | 1024.8 hPa | 0 mm | - | 0 W/m² | - |
| 1777227004 | 6.67° C | 42% | 1024.7 hPa | 0 mm | - | 0 W/m² | - |
| 1777226706 | 7.22° C | 40% | 1024.7 hPa | 0 mm | - | 1 W/m² | - |
* Rain latest hour (hover to see other rain measurements)
** Current wind speed in m/s (hover to see current wind gust speed)